| time (UTC) | temp F | wind direction | speed MPH | gust MPH | rain 1hr in | rain 24hr in | rain mn in | humidity % | barometer mb |
| 20260508120010 | 50 | 2 | 1.0 | 6.0 | 0.00 | 0.07 | 0.00 | 58 | 1010.2 |
| 20260508114509 | 50 | 347 | 3.0 | 7.0 | 0.00 | 0.07 | 0.00 | 57 | 1010.5 |
| 20260508113019 | 50 | 340 | 2.0 | 8.0 | 0.00 | 0.07 | 0.00 | 57 | 1010.6 |
| 20260508111550 | 50 | 323 | 3.0 | 8.0 | 0.00 | 0.07 | 0.00 | 58 | 1010.4 |
| 20260508110105 | 49 | 341 | 3.0 | 7.0 | 0.00 | 0.08 | 0.00 | 59 | 1010.2 |
| 20260508104539 | 48 | 359 | 2.0 | 7.0 | 0.00 | 0.08 | 0.00 | 61 | 1010.2 |
| 20260508103058 | 48 | 9 | 2.0 | 5.0 | 0.00 | 0.08 | 0.00 | 61 | 1010.0 |
| 20260508101557 | 47 | 5 | 1.0 | 6.0 | 0.00 | 0.08 | 0.00 | 62 | 1009.7 |
| 20260508100004 | 47 | 341 | 1.0 | 5.0 | 0.00 | 0.22 | 0.00 | 63 | 1009.7 |
| 20260508094522 | 47 | 344 | 2.0 | 6.0 | 0.00 | 0.22 | 0.00 | 62 | 1009.6 |
| 20260508093043 | 48 | 333 | 1.0 | 7.0 | 0.00 | 0.22 | 0.00 | 61 | 1009.4 |
| 20260508091559 | 48 | 334 | 3.0 | 9.0 | 0.00 | 0.22 | 0.00 | 61 | 1009.4 |
| 20260508090013 | 47 | 344 | 4.0 | 11.0 | 0.00 | 0.54 | 0.00 | 62 | 1009.3 |
| 20260508084516 | 47 | 14 | 2.0 | 10.0 | 0.00 | 0.54 | 0.00 | 61 | 1009.0 |
| 20260508083034 | 48 | 351 | 3.0 | 9.0 | 0.00 | 0.54 | 0.00 | 60 | 1008.7 |
| 20260508081540 | 48 | 14 | 4.0 | 10.0 | 0.00 | 0.54 | 0.00 | 62 | 1008.7 |
| 20260508080026 | 48 | 335 | 1.0 | 8.0 | 0.00 | 0.56 | 0.00 | 61 | 1008.3 |
| 20260508074515 | 48 | 350 | 2.0 | 5.0 | 0.00 | 0.56 | 0.00 | 60 | 1008.1 |
| 20260508073011 | 48 | 342 | 2.0 | 5.0 | 0.00 | 0.56 | 0.00 | 58 | 1007.9 |
| 20260508071520 | 49 | 345 | 2.0 | 6.0 | 0.00 | 0.56 | 0.00 | 57 | 1007.9 |
| 20260508070033 | 50 | 358 | 3.0 | 9.0 | 0.00 | 0.56 | 0.00 | 55 | 1007.8 |
| 20260508064604 | 50 | 354 | 4.0 | 9.0 | 0.00 | 0.56 | 0.00 | 56 | 1007.6 |
| 20260508063030 | 51 | 23 | 4.0 | 11.0 | 0.00 | 0.56 | 0.00 | 52 | 1007.7 |
| 20260508061522 | 51 | 16 | 4.0 | 10.0 | 0.00 | 0.56 | 0.00 | 53 | 1007.6 |
| 20260508060054 | 51 | 6 | 4.0 | 11.0 | 0.00 | 0.56 | 0.00 | 50 | 1007.6 |
| 20260508054603 | 52 | 2 | 5.0 | 11.0 | 0.00 | 0.56 | 0.00 | 49 | 1007.7 |
| 20260508053018 | 52 | 345 | 4.0 | 12.0 | 0.00 | 0.56 | 0.00 | 49 | 1007.7 |
| 20260508051522 | 53 | 355 | 4.0 | 11.0 | 0.00 | 0.56 | 0.00 | 49 | 1007.9 |
| 20260508050025 | 53 | 325 | 7.0 | 14.0 | 0.00 | 0.56 | 0.00 | 47 | 1007.7 |
| 20260508044524 | 53 | 4 | 6.0 | 15.0 | 0.00 | 0.56 | 0.00 | 50 | 1007.7 |
| 20260508043037 | 54 | 345 | 4.0 | 12.0 | 0.00 | 0.56 | 0.00 | 47 | 1007.6 |
| 20260508041517 | 54 | 355 | 5.0 | 14.0 | 0.00 | 0.56 | 0.00 | 46 | 1007.6 |
| 20260508040049 | 54 | 345 | 5.0 | 12.0 | 0.00 | 0.56 | 0.56 | 47 | 1007.7 |
| 20260508034548 | 54 | 10 | 4.0 | 12.0 | 0.00 | 0.56 | 0.56 | 46 | 1007.7 |
| 20260508033101 | 54 | 347 | 4.0 | 10.0 | 0.00 | 0.56 | 0.56 | 46 | 1007.6 |
| 20260508031520 | 54 | 360 | 3.0 | 13.0 | 0.00 | 0.56 | 0.56 | 45 | 1007.7 |
| 20260508030023 | 54 | 355 | 5.0 | 12.0 | 0.00 | 0.56 | 0.56 | 46 | 1007.9 |
| 20260508024502 | 54 | 2 | 4.0 | 11.0 | 0.00 | 0.56 | 0.56 | 47 | 1008.0 |
| 20260508023002 | 55 | 346 | 6.0 | 14.0 | 0.00 | 0.56 | 0.56 | 46 | 1007.9 |
| 20260508021505 | 55 | 360 | 5.0 | 13.0 | 0.00 | 0.56 | 0.56 | 47 | 1007.9 |
| 20260508020109 | 55 | 2 | 5.0 | 12.0 | 0.00 | 0.56 | 0.56 | 47 | 1007.8 |
| 20260508014628 | 56 | 347 | 3.0 | 13.0 | 0.00 | 0.56 | 0.56 | 48 | 1007.8 |
| 20260508013014 | 56 | 354 | 5.0 | 13.0 | 0.00 | 0.56 | 0.56 | 49 | 1007.6 |
| 20260508011528 | 56 | 342 | 6.0 | 17.0 | 0.00 | 0.56 | 0.56 | 48 | 1007.3 |
| 20260508010037 | 57 | 333 | 5.0 | 15.0 | 0.00 | 0.56 | 0.56 | 47 | 1007.3 |
| 20260508004525 | 57 | 337 | 6.0 | 12.0 | 0.00 | 0.56 | 0.56 | 48 | 1007.1 |
| 20260508003024 | 58 | 300 | 4.0 | 12.0 | 0.00 | 0.56 | 0.56 | 45 | 1007.1 |
| 20260508001520 | 58 | 360 | 5.0 | 13.0 | 0.00 | 0.56 | 0.56 | 43 | 1005.9 |
| 20260507234545 | 59 | 343 | 4.0 | 14.0 | 0.00 | 0.63 | 0.56 | 41 | 1005.9 |
| 20260507233055 | 60 | 8 | 4.0 | 11.0 | 0.00 | 0.63 | 0.56 | 43 | 1005.9 |
| 20260507231524 | 61 | 345 | 4.0 | 15.0 | 0.00 | 0.63 | 0.56 | 41 | 1005.7 |
| 20260507230039 | 61 | 16 | 5.0 | 13.0 | 0.00 | 0.70 | 0.56 | 43 | 1005.5 |
| 20260507224512 | 58 | 356 | 2.0 | 8.0 | 0.00 | 0.70 | 0.56 | 65 | 1005.3 |
| 20260507223100 | 57 | 285 | 5.0 | 14.0 | 0.00 | 0.70 | 0.56 | 73 | 1005.3 |
| 20260507221540 | 56 | 124 | 6.0 | 17.0 | 0.00 | 0.70 | 0.56 | 76 | 1005.5 |
| 20260507220020 | 55 | 243 | 12.0 | 24.0 | 0.00 | 0.70 | 0.56 | 76 | 1005.4 |
| 20260507214513 | 55 | 239 | 12.0 | 22.0 | 0.00 | 0.70 | 0.56 | 75 | 1005.2 |
| 20260507213036 | 56 | 248 | 11.0 | 20.0 | 0.00 | 0.70 | 0.56 | 76 | 1005.2 |
| 20260507211535 | 55 | 124 | 14.0 | 25.0 | 0.00 | 0.70 | 0.56 | 75 | 1005.1 |
| 20260507210013 | 56 | 257 | 12.0 | 23.0 | 0.00 | 0.70 | 0.56 | 74 | 1005.1 |
| 20260507204522 | 56 | 258 | 9.0 | 17.0 | 0.00 | 0.70 | 0.56 | 73 | 1004.9 |
| 20260507203005 | 55 | 235 | 11.0 | 20.0 | 0.00 | 0.70 | 0.56 | 74 | 1005.0 |
| 20260507201556 | 55 | 124 | 14.0 | 22.0 | 0.00 | 0.70 | 0.56 | 74 | 1005.0 |
| 20260507200035 | 55 | 252 | 9.0 | 18.0 | 0.00 | 0.70 | 0.56 | 76 | 1005.0 |
| 20260507194538 | 55 | 250 | 12.0 | 25.0 | 0.00 | 0.70 | 0.56 | 77 | 1005.2 |
| 20260507193027 | 55 | 124 | 14.0 | 21.0 | 0.00 | 0.70 | 0.56 | 75 | 1005.5 |
| 20260507191519 | 56 | 254 | 14.0 | 21.0 | 0.00 | 0.70 | 0.56 | 76 | 1005.8 |
| 20260507190035 | 55 | 124 | 14.0 | 22.0 | 0.00 | 0.70 | 0.56 | 78 | 1006.0 |
| 20260507184534 | 55 | 262 | 14.0 | 23.0 | 0.00 | 0.70 | 0.56 | 80 | 1006.2 |
| 20260507183049 | 55 | 124 | 13.0 | 25.0 | 0.00 | 0.70 | 0.56 | 83 | 1006.4 |
| 20260507181543 | 55 | 269 | 11.0 | 24.0 | 0.00 | 0.70 | 0.56 | 83 | 1006.5 |
| 20260507180050 | 55 | 266 | 14.0 | 28.0 | 0.00 | 0.70 | 0.56 | 83 | 1006.6 |
| 20260507174519 | 56 | 262 | 13.0 | 22.0 | 0.00 | 0.70 | 0.56 | 84 | 1006.6 |
| 20260507173003 | 56 | 235 | 10.0 | 16.0 | 0.00 | 0.70 | 0.56 | 83 | 1006.8 |
| 20260507171510 | 55 | 124 | 7.0 | 18.0 | 0.00 | 0.70 | 0.56 | 84 | 1007.1 |
| 20260507164551 | 55 | 124 | 10.0 | 16.0 | 0.00 | 0.70 | 0.56 | 83 | 1007.4 |
| 20260507163111 | 56 | 228 | 9.0 | 15.0 | 0.00 | 0.70 | 0.56 | 81 | 1007.4 |
| 20260507161603 | 57 | 314 | 7.0 | 15.0 | 0.00 | 0.70 | 0.56 | 82 | 1007.6 |
| 20260507160059 | 59 | 267 | 1.0 | 8.0 | 0.00 | 0.70 | 0.56 | 72 | 1007.6 |
| 20260507154541 | 59 | 300 | 4.0 | 7.0 | 0.00 | 0.70 | 0.56 | 69 | 1007.9 |
| 20260507153106 | 58 | 326 | 0.0 | 5.0 | 0.00 | 0.70 | 0.56 | 74 | 1008.0 |
| 20260507151509 | 57 | 360 | 2.0 | 7.0 | 0.00 | 0.70 | 0.56 | 76 | 1008.0 |
| 20260507150035 | 56 | 19 | 3.0 | 7.0 | 0.00 | 0.70 | 0.56 | 81 | 1008.1 |
| 20260507144531 | 55 | 341 | 3.0 | 9.0 | 0.00 | 0.70 | 0.56 | 81 | 1007.9 |
| 20260507143011 | 53 | 337 | 2.0 | 7.0 | 0.00 | 0.70 | 0.56 | 86 | 1008.1 |
| 20260507141504 | 53 | 310 | 3.0 | 8.0 | 0.00 | 0.70 | 0.56 | 88 | 1008.2 |
| 20260507140108 | 52 | 325 | 2.0 | 9.0 | 0.00 | 0.70 | 0.56 | 92 | 1008.5 |
| 20260507134553 | 51 | 353 | 1.0 | 6.0 | 0.00 | 0.70 | 0.56 | 89 | 1008.3 |
| 20260507133101 | 51 | 355 | 1.0 | 5.0 | 0.00 | 0.70 | 0.56 | 90 | 1008.3 |
| 20260507131535 | 50 | 35 | 1.0 | 7.0 | 0.01 | 0.70 | 0.56 | 89 | 1008.2 |
| 20260507130024 | 49 | 35 | 2.0 | 7.0 | 0.03 | 0.70 | 0.56 | 89 | 1008.1 |
| 20260507124547 | 49 | 27 | 2.0 | 7.0 | 0.03 | 0.70 | 0.56 | 89 | 1008.2 |
| 20260507123036 | 49 | 8 | 4.0 | 11.0 | 0.03 | 0.70 | 0.56 | 90 | 1008.5 |
| 20260507121539 | 48 | 12 | 4.0 | 10.0 | 0.04 | 0.69 | 0.55 | 90 | 1008.8 |